LRTC Weather Reports


Display with metric or nautical units.
time (UTC)temp
F
wind
direction
speed
MPH
gust
MPH
rain 1hr
in
rain 24hr
in
rain mn
in
humidity
%
barometer
mb
20260504001844 36 40 3.0 0.0 0.00 0.00 0.00 87 1016.0
20260504000346 36 40 3.0 0.0 0.00 0.00 0.00 87 1016.0
20260503233344 36 2.0 0.0 0.00 0.00 0.00 87 1017.0
20260503230356 36 2.0 0.0 0.00 0.00 0.00 87 1017.0
20260503221901 37 220 5.0 0.0 0.00 0.00 0.00 81 1017.0
20260503220426 37 220 5.0 0.0 0.00 0.00 0.00 81 1017.0
20260503213344 37 190 2.0 0.0 0.00 0.00 0.00 81 1017.0
20260503211845 39 10 3.0 0.0 0.00 0.00 0.00 81 1017.0
20260503210344 39 10 3.0 0.0 0.00 0.00 0.00 81 1017.0
20260503204851 43 2.0 0.0 0.00 0.00 0.00 71 1018.0
20260503203505 43 2.0 0.0 0.00 0.00 0.00 71 1018.0
20260503201844 43 20 2.0 0.0 0.00 0.00 0.00 71 1018.0
20260503200354 43 20 2.0 0.0 0.00 0.00 0.00 71 1018.0
20260503194910 43 30 3.0 0.0 0.00 0.00 0.00 71 1018.0
20260503193506 43 30 3.0 0.0 0.00 0.00 0.00 71 1018.0
20260503190344 46 230 3.0 0.0 0.00 0.00 0.00 62 1018.0
20260503185004 46 220 3.0 0.0 0.00 0.00 0.00 62 1019.0
20260503183344 46 220 3.0 0.0 0.00 0.00 0.00 62 1019.0
20260503181844 48 2.0 0.0 0.00 0.00 0.00 58 1018.0
20260503180344 48 2.0 0.0 0.00 0.00 0.00 58 1018.0
20260503174904 50 130 5.0 0.0 0.00 0.00 0.00 58 1018.0
20260503173409 50 130 5.0 0.0 0.00 0.00 0.00 58 1018.0
20260503171844 52 80 6.0 0.0 0.00 0.00 0.00 58 1018.0
20260503170345 52 80 6.0 0.0 0.00 0.00 0.00 58 1018.0
20260503150344 59 360 8.0 0.0 0.00 0.00 0.00 39 1018.0
20260503130345 57 40 9.0 0.0 0.00 0.00 0.00 44 1020.0
20260503110405 57 30 10.0 0.0 0.00 0.00 0.00 44 1021.0
20260503090405 55 50 9.0 0.0 0.00 0.00 0.00 47 1022.0
20260503080355 55 30 9.0 0.0 0.00 0.00 0.00 51 1022.0
20260503071843 54 20 9.0 0.0 0.00 0.00 0.00 58 1022.0
20260503070345 54 20 9.0 0.0 0.00 0.00 0.00 58 1022.0
20260503054844 48 10 8.0 0.0 0.00 0.00 0.00 71 1022.0
20260503053344 48 10 8.0 0.0 0.00 0.00 0.00 71 1022.0
20260503051844 45 340 9.0 0.0 0.00 0.00 0.00 76 1022.0
20260503050344 45 340 9.0 0.0 0.00 0.00 0.00 76 1022.0
20260503044844 43 350 8.0 0.0 0.00 0.00 0.00 81 1022.0
20260503043345 43 350 8.0 0.0 0.00 0.00 0.00 81 1022.0
20260503041844 41 340 7.0 0.0 0.00 0.00 0.00 87 1022.0
20260503040407 41 340 7.0 0.0 0.00 0.00 0.00 87 1022.0
20260503033344 39 350 6.0 0.0 0.00 0.00 0.00 87 1021.0
20260503030344 37 340 7.0 0.0 0.00 0.00 0.00 93 1021.0
20260503024859 37 340 9.0 0.0 0.00 0.00 0.00 93 1021.0
20260503023345 37 340 9.0 0.0 0.00 0.00 0.00 93 1021.0
20260503021844 39 330 6.0 0.0 0.00 0.00 0.00 93 1021.0
20260503020344 39 330 6.0 0.0 0.00 0.00 0.00 93 1021.0
20260503013344 37 330 9.0 0.0 0.00 0.00 0.00 93 1021.0
20260503011844 37 340 9.0 0.0 0.00 0.00 0.00 93 1021.0
20260503010345 37 340 9.0 0.0 0.00 0.00 0.00 93 1021.0
20260503003344 36 340 6.0 0.0 0.00 0.00 0.00 87 1021.0